sat.trackr.live / text

‹ back to catalog

STARLINK-34279

NORAD 64389 · 2025-127V

PAYLOAD ACTIVE UNKNOWN

§ Identity

Operator
Country
US
Launch date
2025-06-13
Launch site
AFETR
Launch vehicle
Mass (kg)
RCS (m²)

Purposes: comms

External: N2YO · Heavens-Above · Gunter

§ Orbital elements

Epoch: 2026-05-24T22:38:14.443008Z

Period
94.27 min
Inclination
43.0010°
Eccentricity
0.0001016
Mean motion
15.27570108 rev/d
Perigee alt
482.4 km
Apogee alt
483.8 km
Semi-major
6,861.2 km
B*
-4.2511e-4
RAAN
109.6135°
Arg perigee
250.6649°
Mean anomaly
109.4093°
Rev number
5,412

§ Raw data

STARLINK-342791 64389U 25127V   26144.94322272 -.00011938  00000+0 -42511-3 0  99942 64389  43.0010 109.6135 0001016 250.6649 109.4093 15.27570108 54129

JSON: /api/v1/satellites/64389 · /tle

For live sub-satellite position, see the globe view (requires WebGL).

§ Visibility from observer

Set your observer location to see the next 7 days of passes ≥ 10°. The values pass through the URL so the page stays shareable.

No JS? Fill the form by hand. The geolocation button needs JavaScript.